Findlay, OH

9:29 PM EST on December 08, 2019 (GMT -0500)
Findlay

Weather History for KFDY - October, 2019

Change the Weather History Date:

Friday, October 18, 2019

  Actual Average Record
Temperature  
Mean Temperature 46 °F -  
Max Temperature 59 °F 58 °F 82 °F (1953)
Min Temperature 35 °F 40 °F 21 °F (1976)
Degree Days  
Heating Degree Days 19    
Moisture  
Dew Point 37 °F    
Average Humidity 70    
Maximum Humidity 93    
Minimum Humidity 44    
Precipitation  
Precipitation 0.00 in - - ()
Sea Level Pressure  
Sea Level Pressure 30.05 in    
Wind  
Wind Speed 4 mph (NNE)    
Max Wind Speed 8 mph    
Max Gust Speed -    
Visibility 10 miles    
Events      
Averages and records for this station are not official NWS values.
T = Trace of Precipitation, MM = Missing Value Source: NWS Daily Summary

Daily Weather History Graph

Daily Weather History Graph

Search for Another Location

Airport or City:

Astronomy

Oct. 18, 2019 Rise Set
Actual Time 7:49 AM EDT 6:49 PM EDT
Civil Twilight 7:21 AM EDT 7:17 PM EDT
Nautical Twilight 6:49 AM EDT 7:49 PM EDT
Astronomical Twilight 6:17 AM EDT 8:21 PM EDT
Moon 10:03 PM EDT (10/18) 12:22 PM EDT (10/18)
Length of Visible Light 11h 56m
Length of Day
11h 00m
Waning Gibbous, 79% of the Moon is Illuminated
Oct 18
Waning Gibbous
Oct 21
Last Quarter
Oct 27
New
Nov 4
First Quarter
Nov 12
Full

Hourly Weather History & Observations

Time (EDT) Temp. Windchill Dew Point Humidity Pressure Visibility Wind Dir Wind Speed Gust Speed Precip Events Conditions
12:53 AM 44.1 °F 39.5 °F 39.0 °F 82% 30.01 in 10.0 mi WNW 8.1 mph - N/A   Clear
1:53 AM 41.0 °F 38.0 °F 37.0 °F 86% 30.01 in 10.0 mi WNW 4.6 mph - N/A   Clear
2:53 AM 39.0 °F 36.8 °F 36.0 °F 89% 30.01 in 10.0 mi West 3.5 mph - N/A   Clear
3:53 AM 39.9 °F 36.7 °F 37.0 °F 89% 30.01 in 10.0 mi West 4.6 mph - N/A   Clear
4:53 AM 37.9 °F 35.5 °F 36.0 °F 93% 30.03 in 10.0 mi West 3.5 mph - N/A   Clear
5:53 AM 37.0 °F 33.3 °F 35.1 °F 93% 30.06 in 10.0 mi West 4.6 mph - N/A   Clear
6:53 AM 37.0 °F - 34.0 °F 89% 30.07 in 5.0 mi Calm Calm - N/A   Clear
7:53 AM 35.1 °F 32.2 °F 33.1 °F 92% 30.09 in 10.0 mi NW 3.5 mph - N/A   Clear
8:53 AM 39.0 °F - 36.0 °F 89% 30.10 in 10.0 mi Calm Calm - N/A   Clear
9:53 AM 46.9 °F - 39.0 °F 74% 30.11 in 10.0 mi NNE 5.8 mph - N/A   Clear
10:53 AM 50.0 °F - 37.0 °F 61% 30.11 in 10.0 mi ENE 5.8 mph - N/A   Clear
11:53 AM 52.0 °F - 36.0 °F 54% 30.10 in 10.0 mi North 4.6 mph - N/A   Clear
12:53 PM 54.0 °F - 36.0 °F 51% 30.09 in 10.0 mi Calm Calm - N/A   Clear
1:53 PM 55.0 °F - 35.1 °F 47% 30.06 in 10.0 mi Calm Calm - N/A   Clear
2:53 PM 55.9 °F - 35.1 °F 45% 30.05 in 10.0 mi Calm Calm - N/A   Clear
3:53 PM 57.0 °F - 36.0 °F 45% 30.04 in 10.0 mi Calm Calm - N/A   Clear
4:53 PM 57.9 °F - 36.0 °F 44% 30.04 in 10.0 mi Calm Calm - N/A   Clear
5:53 PM 57.0 °F - 36.0 °F 45% 30.03 in 10.0 mi East 3.5 mph - N/A   Clear
6:53 PM 54.0 °F - 36.0 °F 51% 30.03 in 10.0 mi ENE 4.6 mph - N/A   Clear
7:53 PM 51.1 °F - 37.0 °F 59% 30.03 in 10.0 mi East 5.8 mph - N/A   Clear
8:53 PM 48.0 °F - 39.0 °F 71% 30.01 in 10.0 mi East 6.9 mph - N/A   Clear
9:53 PM 46.0 °F 43.1 °F 39.0 °F 76% 30.02 in 10.0 mi East 5.8 mph - N/A   Clear
10:53 PM 45.0 °F 41.8 °F 37.9 °F 76% 30.01 in 10.0 mi East 5.8 mph - N/A   Clear
11:53 PM 43.0 °F 40.3 °F 37.9 °F 82% 30.01 in 10.0 mi ESE 4.6 mph - N/A   Clear